This demonstration page uses our WeatherBlox Daily Observations layout. Learn more.

Left ArrowRight Arrow

Hourly Observations for February 10, 2015

Temp ( °F °C ) Dew Point ( °F °C ) Humidity (%) Winds ( mph kmh ) Pressure ( in mb ) Visibility ( mi km ) Precip ( " mm )
12:53 am 00:53 Cloudy 27 -2.8 20 -6.7 75 75 NNE 8 13 30.18 1022 10 16.0934 N/A
1:53 am 01:53 Cloudy 26 -3.3 20 -6.7 78 78 N 12 19 30.18 1022 8 12.87472 N/A
2:53 am 02:53 Cloudy 25 -3.9 19 -7.2 78 78 NNE 6 9 30.18 1022 9 14.48406 N/A
3:53 am 03:53 Cloudy 25 -3.9 19 -7.2 78 78 NNE 7 11 30.19 1022 10 16.0934 N/A
4:53 am 04:53 Cloudy 25 -3.9 18 -7.8 75 75 N 12 19 30.2 1023 10 16.0934 N/A
5:39 am 05:39 Cloudy 24 -4.4 18 -7.8 77 77 NNE 9 15 30.21 1023 10 16.0934 N/A
5:53 am 05:53 Cloudy 24 -4.4 18 -7.8 77 77 N 9 15 30.22 1023 10 16.0934 N/A
6:53 am 06:53 Cloudy 24 -4.4 18 -7.8 77 77 N 7 11 30.23 1024 10 16.0934 N/A
7:53 am 07:53 Cloudy 23 -5 18 -7.8 81 81 ENE 8 13 30.24 1024 10 16.0934 N/A
8:53 am 08:53 Cloudy 23 -5 18 -7.8 81 81 ENE 7 11 30.23 1024 10 16.0934 N/A
9:53 am 09:53 Cloudy 25 -3.9 18 -7.8 75 75 NNW 8 13 30.26 1025 10 16.0934 N/A
10:24 am 10:24 Cloudy 24 -4.4 17 -8.3 75 75 N 9 15 30.27 1025 10 16.0934 N/A
10:53 am 10:53 Cloudy 25 -3.9 18 -7.8 75 75 N 10 17 30.27 1025 10 16.0934 N/A
11:53 am 11:53 Cloudy 26 -3.3 18 -7.8 71 71 N 9 15 30.27 1025 10 16.0934 N/A
12:53 pm 12:53 Cloudy 27 -2.8 19 -7.2 72 72 N 6 9 30.25 1024 10 16.0934 N/A
1:41 pm 13:41 Partly Cloudy 29 -1.7 20 -6.7 69 69 ENE 7 11 30.21 1023 10 16.0934 N/A
1:53 pm 13:53 Mostly Sunny 29 -1.7 20 -6.7 69 69 NE 5 7 30.21 1023 10 16.0934 N/A
2:53 pm 14:53 Sunny 31 -0.6 21 -6.1 67 67 VRB 7 11 30.2 1023 10 16.0934 N/A
3:53 pm 15:53 Sunny 34 1.1 22 -5.6 61 61 N 3 6 30.21 1023 10 16.0934 N/A
4:53 pm 16:53 Sunny 33 0.6 22 -5.6 64 64 E 5 7 30.2 1023 10 16.0934 N/A
5:53 pm 17:53 Sunny 30 -1.1 22 -5.6 72 72 E 6 9 30.2 1023 10 16.0934 N/A
6:53 pm 18:53 Clear 27 -2.8 21 -6.1 78 78 E 8 13 30.2 1023 9 14.48406 N/A
7:53 pm 19:53 Clear 24 -4.4 20 -6.7 84 84 E 5 7 30.21 1023 7 11.26538 N/A
9:53 pm 21:53 Clear 21 -6.1 18 -7.8 88 88 E 5 7 30.19 1022 7 11.26538 N/A
10:18 pm 22:18 Partly Cloudy 20 -6.7 18 -7.8 92 92 N N/A 30.21 1023 7 11.26538 N/A
10:26 pm 22:26 Mostly Cloudy 21 -6.1 19 -7.2 92 92 N N/A 30.21 1023 7 11.26538 N/A
10:53 pm 22:53 Cloudy 25 -3.9 22 -5.6 88 88 E 5 7 30.19 1022 7 11.26538 N/A
11:53 pm 23:53 Cloudy 25 -3.9 22 -5.6 88 88 ESE 6 9 30.17 1022 7 11.26538 N/A

Powered by AerisWeather